Year,Month,Day,Hour,Minute,Value (Times are PST for temperature in C)
2010,02,15,09,50,6.30
2010,02,15,09,51,6.30
2010,02,15,09,52,6.30
2010,02,15,09,53,6.30
2010,02,15,09,54,6.40
2010,02,15,09,55,6.40
2010,02,15,09,56,6.40
2010,02,15,09,57,6.40
2010,02,15,09,58,6.40
2010,02,15,09,59,6.50
2010,02,15,10,00,6.50
2010,02,15,10,01,6.50
2010,02,15,10,02,6.60
2010,02,15,10,03,6.60
2010,02,15,10,04,6.60
2010,02,15,10,05,6.60
2010,02,15,10,06,6.60
2010,02,15,10,07,6.60
2010,02,15,10,08,6.60
2010,02,15,10,09,6.60
2010,02,15,10,10,6.60
2010,02,15,10,11,6.60
2010,02,15,10,12,6.60
2010,02,15,10,13,6.60
2010,02,15,10,14,6.60
2010,02,15,10,15,6.60
2010,02,15,10,16,6.60
2010,02,15,10,17,6.60
2010,02,15,10,18,6.60
2010,02,15,10,19,6.60
2010,02,15,10,20,6.60
2010,02,15,10,21,6.60
2010,02,15,10,22,6.60
2010,02,15,10,23,6.60
2010,02,15,10,24,6.60
2010,02,15,10,25,6.60
2010,02,15,10,26,6.60
2010,02,15,10,27,6.60
2010,02,15,10,28,6.60
2010,02,15,10,29,6.70
2010,02,15,10,30,6.70
2010,02,15,10,31,6.70
2010,02,15,10,32,6.70
2010,02,15,10,33,6.80
2010,02,15,10,34,6.80
2010,02,15,10,35,6.80
2010,02,15,10,36,6.90
2010,02,15,10,37,6.90
2010,02,15,10,38,6.90
2010,02,15,10,39,6.90
2010,02,15,10,40,6.90
2010,02,15,10,41,6.90
2010,02,15,10,42,6.90
2010,02,15,10,43,6.90
2010,02,15,10,44,6.90
2010,02,15,10,45,6.90
2010,02,15,10,46,6.90
2010,02,15,10,47,7.00
2010,02,15,10,48,7.00
2010,02,15,10,49,7.00
2010,02,15,10,50,7.10
2010,02,15,10,51,7.10
2010,02,15,10,52,7.10
2010,02,15,10,53,7.20
2010,02,15,10,54,7.20
2010,02,15,10,55,7.20
2010,02,15,10,56,7.20
2010,02,15,10,57,7.20
2010,02,15,10,58,7.20
2010,02,15,10,59,7.20
2010,02,15,11,00,7.20
2010,02,15,11,01,7.20
2010,02,15,11,02,7.20
2010,02,15,11,03,7.20
2010,02,15,11,04,7.30
2010,02,15,11,05,7.30
2010,02,15,11,06,7.30
2010,02,15,11,07,7.30
2010,02,15,11,08,7.30
2010,02,15,11,09,7.30
2010,02,15,11,10,7.40
2010,02,15,11,11,7.40
2010,02,15,11,12,7.40
2010,02,15,11,13,7.40
2010,02,15,11,14,7.40
2010,02,15,11,15,7.50
2010,02,15,11,16,7.40
2010,02,15,11,17,7.40
2010,02,15,11,18,7.50
2010,02,15,11,19,7.50
2010,02,15,11,20,7.50
2010,02,15,11,21,7.50
2010,02,15,11,22,7.50
2010,02,15,11,23,7.50
2010,02,15,11,24,7.50
2010,02,15,11,25,7.50
2010,02,15,11,26,7.50
2010,02,15,11,27,7.50
2010,02,15,11,28,7.50
2010,02,15,11,29,7.50
2010,02,15,11,30,7.50
2010,02,15,11,31,7.50
2010,02,15,11,32,7.50
2010,02,15,11,33,7.50
2010,02,15,11,34,7.50
2010,02,15,11,35,7.60
2010,02,15,11,36,7.60
2010,02,15,11,37,7.60
2010,02,15,11,38,7.60
2010,02,15,11,39,7.60
2010,02,15,11,40,7.70
2010,02,15,11,41,7.70
2010,02,15,11,42,7.70
2010,02,15,11,43,7.70
2010,02,15,11,44,7.70
2010,02,15,11,45,7.70
2010,02,15,11,46,7.70
2010,02,15,11,47,7.70
2010,02,15,11,48,7.70
2010,02,15,11,49,7.70
2010,02,15,11,50,7.70
2010,02,15,11,51,7.70
2010,02,15,11,52,7.70
2010,02,15,11,53,7.70
2010,02,15,11,54,7.70
2010,02,15,11,55,7.70
2010,02,15,11,56,7.70
2010,02,15,11,57,7.70
2010,02,15,11,58,7.70
2010,02,15,11,59,7.70
2010,02,15,12,00,7.70
2010,02,15,12,01,7.70
2010,02,15,12,02,7.70
2010,02,15,12,03,7.70
2010,02,15,12,04,7.70
2010,02,15,12,05,7.70
2010,02,15,12,06,7.70
2010,02,15,12,07,7.70
2010,02,15,12,08,7.70
2010,02,15,12,09,7.70
2010,02,15,12,10,7.70
2010,02,15,12,11,7.70
2010,02,15,12,12,7.70
2010,02,15,12,13,7.70
2010,02,15,12,14,7.70
2010,02,15,12,15,7.80
2010,02,15,12,16,7.80
2010,02,15,12,17,7.80
2010,02,15,12,18,7.80
2010,02,15,12,19,7.80
2010,02,15,12,20,7.80
2010,02,15,12,21,7.80
2010,02,15,12,22,7.80
2010,02,15,12,23,7.80
2010,02,15,12,24,7.80
2010,02,15,12,25,7.80
2010,02,15,12,26,7.80
2010,02,15,12,27,7.80
2010,02,15,12,28,7.80
2010,02,15,12,29,7.80
2010,02,15,12,30,7.90
2010,02,15,12,31,7.90
2010,02,15,12,32,7.90
2010,02,15,12,33,8.00
2010,02,15,12,34,8.00
2010,02,15,12,35,8.10
2010,02,15,12,36,8.10
2010,02,15,12,37,8.20
2010,02,15,12,38,8.20
2010,02,15,12,39,8.30
2010,02,15,12,40,8.30
2010,02,15,12,41,8.30
2010,02,15,12,42,8.40
2010,02,15,12,43,8.40
2010,02,15,12,44,8.40
2010,02,15,12,45,8.40
2010,02,15,12,46,8.40
2010,02,15,12,47,8.40
2010,02,15,12,48,8.40
2010,02,15,12,49,8.40
2010,02,15,12,50,8.40
2010,02,15,12,51,8.50
2010,02,15,12,52,8.50
2010,02,15,12,53,8.50
2010,02,15,12,54,8.60
2010,02,15,12,55,8.60
2010,02,15,12,56,8.60
2010,02,15,12,57,8.60
2010,02,15,12,58,8.60
2010,02,15,12,59,8.60
2010,02,15,13,00,8.60
2010,02,15,13,01,8.60
2010,02,15,13,02,8.60
2010,02,15,13,03,8.60
2010,02,15,13,04,8.60
2010,02,15,13,05,8.60
2010,02,15,13,06,8.60
2010,02,15,13,07,8.60
2010,02,15,13,08,8.60
2010,02,15,13,09,8.60
2010,02,15,13,10,8.60
2010,02,15,13,11,8.70
2010,02,15,13,12,8.70
2010,02,15,13,13,8.70
2010,02,15,13,14,8.80
2010,02,15,13,15,8.80
2010,02,15,13,16,8.80
2010,02,15,13,17,8.80
2010,02,15,13,18,8.80
2010,02,15,13,19,8.90
2010,02,15,13,20,8.90
2010,02,15,13,21,8.90
2010,02,15,13,22,8.90
2010,02,15,13,23,8.90
2010,02,15,13,24,8.90
2010,02,15,13,25,8.90
2010,02,15,13,26,8.90
2010,02,15,13,27,8.90
2010,02,15,13,28,8.90
2010,02,15,13,29,9.00
2010,02,15,13,30,9.00
2010,02,15,13,31,9.10
2010,02,15,13,32,9.10
2010,02,15,13,33,9.10
2010,02,15,13,34,9.10
2010,02,15,13,35,9.10
2010,02,15,13,36,9.10
2010,02,15,13,37,9.10
2010,02,15,13,38,9.10
2010,02,15,13,39,9.10
2010,02,15,13,40,9.10
2010,02,15,13,41,9.00
2010,02,15,13,42,8.90
2010,02,15,13,43,8.90
2010,02,15,13,44,8.80
2010,02,15,13,45,8.80
2010,02,15,13,46,8.80
2010,02,15,13,47,8.80
2010,02,15,13,48,8.70
2010,02,15,13,49,8.70
2010,02,15,13,50,8.70
2010,02,15,13,51,8.70
2010,02,15,13,52,8.60
2010,02,15,13,53,8.60
2010,02,15,13,54,8.50
2010,02,15,13,55,8.50
2010,02,15,13,56,8.50
2010,02,15,13,57,8.50
2010,02,15,13,58,8.50
2010,02,15,13,59,8.40
2010,02,15,14,00,8.40
2010,02,15,14,01,8.40
2010,02,15,14,02,8.40
2010,02,15,14,03,8.40
2010,02,15,14,04,8.40
2010,02,15,14,05,8.40
2010,02,15,14,06,8.40
2010,02,15,14,07,8.40
2010,02,15,14,08,8.40
2010,02,15,14,09,8.40
2010,02,15,14,10,8.40
2010,02,15,14,11,8.40
2010,02,15,14,44,8.00
2010,02,15,14,45,8.00
2010,02,15,14,46,8.00
2010,02,15,14,47,8.10
2010,02,15,14,48,8.10
2010,02,15,14,49,8.10
2010,02,15,14,50,8.10
2010,02,15,14,51,8.10
2010,02,15,14,52,8.20
2010,02,15,14,53,8.20
2010,02,15,14,54,8.20
2010,02,15,14,55,8.20
2010,02,15,14,56,8.20
2010,02,15,14,57,8.20
2010,02,15,14,58,8.30
2010,02,15,14,59,8.30
2010,02,15,15,00,8.30
2010,02,15,15,01,8.30
2010,02,15,15,02,8.30
2010,02,15,15,03,8.30
2010,02,15,15,04,8.30
2010,02,15,15,05,8.30
2010,02,15,15,06,8.30
2010,02,15,15,07,8.30
2010,02,15,15,08,8.30
2010,02,15,15,09,8.30
2010,02,15,15,10,8.30
2010,02,15,15,11,8.30
2010,02,15,15,12,8.30
2010,02,15,15,13,8.30
2010,02,15,15,14,8.30
2010,02,15,15,15,8.30
2010,02,15,15,16,8.30
2010,02,15,15,17,8.20
2010,02,15,15,18,8.20
2010,02,15,15,19,8.20
2010,02,15,15,20,8.20
2010,02,15,15,21,8.20
2010,02,15,15,22,8.30
2010,02,15,15,23,8.30
2010,02,15,15,24,8.30
2010,02,15,15,25,8.30
2010,02,15,15,26,8.30
2010,02,15,15,27,8.30
2010,02,15,15,28,8.30
2010,02,15,15,29,8.30
2010,02,15,15,30,8.30
2010,02,15,15,31,8.30
2010,02,15,15,32,8.30
2010,02,15,15,33,8.30
2010,02,15,15,34,8.30
